STARLINK-34546, 64718

Orbit data source: Space-Track

STARLINK-34546, 64718 is a payload satellite owned by SpaceX/Seattle (US) in LEO that was launched on Sat, 28 Jun 2025 UTC via an FALCON 9 launch vehicle from the Air Force Western Test Range (AFWTR). Payload-class satellites include a variety of spacecraft equipped with specific instruments for various scientific and technological missions. These include communications satellites like Starlink; space stations such as the ISS; scientific satellites like the Hubble; Earth observation satellites from companies like Planet Labs, Umbra, and HawkEye 360; GPS; miniature CubeSats for education and research; and military/defense satellites.

Loading next visibility...
Identifier
64718, 2025-142Y
Orbit
LEO
Country
Flag of USUS
Related business
Manufacturer
SpaceX/Seattle
Mission
Operational Commercial Communications
Bus & Motor
STARLINK V2MO, Unknown motor
Mass
575 kg wet, ~530 kg dry
Launch date (UTC)
2025-06-28 (11 months ago)
Launch vehicle
FALCON 9
Launch site
Air Force Western Test Range (AFWTR)
Object type
Payload
Rocket body
Debris
Shape & HBR
Box + 2 Pan, 17.7 m
Radar Cross Section
36.964 m², Large (>1 m²)

Expand to show TLE details & history
Last TLE update: 10 hours ago

TLE from 10 hours ago
0 STARLINK-34546
1 64718U 25142Y   26145.32125892  .00002307  00000-0  20107-3 0  9995
2 64718  70.0002 121.0713 0003597 267.9826  92.0921 14.98336275 51137
Epoch: 2026-05-25T07:42Z
TLE epoch observation values (Epoch: 2026-05-25T07:42:36.770Z)
Latitude
-0.00005°
Longitude
122.50735°
Altitude
574.553 km
Speed
7.574 km/s
True Right ascension
08h 04m 17s
True Declination
0° 00' 00"
Sunlit
Object was in daylight at epoch
Visualization orbit readout
Latitude
Unknown
Longitude
Unknown
Altitude
Unknown
Speed
Unknown
Apparent Right ascension
Unknown
Apparent Declination
Unknown
Sunlit
N/A
Visualization observer readout
Local Sidereal Time
03:10:32
Azimuth
Unknown
Elevation
Unknown
Doppler factor
Unknown
Orbital elements
Apogee altitude
572.484 km
Perigee altitude
567.485 km
Semi-major axis
6,948.122 km
Eccentricity
0.00036
Inclination
70.0002°
RAAN
121.0713°
Arg. of periapsis
267.9826°
True anomaly
92.13329°
Mean anomaly
92.0921°
Eccentric anomaly
92.1127°
Mean motion
3.7475 °/min
Orbital period
96.06 mins
BSTAR
0.00020107
Loading maneuver chart data...
Computing Atmospheric mass density...
Loading historical data...
Loading historical data...
Loading historical data...
Loading historical data...
Loading historical data...
Loading historical data...
Loading historical data...

Documentation

Showing up to 5 results
|